Location: Newark
(37.8333°N, 119.5000°W)
Time: 17:42:08
(UTC+00:00)

Tiros 1 despin weight - Pass Details

Date: 01 September 2019
Orbit: 594 x 643 km, 48.2° (Epoch: 14 October)

Event Time Altitude Azimuth Distance (km) Brightness Sun altitude
Rises 04:21:16 0° 256° (WSW) 2,819 ? -21.5°
Reaches altitude 10° 04:23:38 10° 263° (W) 1,919 ? -21.9°
Maximum altitude 04:27:49 42° 335° (NNW) 847 ? -22.7°
Enters shadow 04:30:30 20° 37° (NE) 1,392 ? -23.1°
